This is the latest recevied weather packets stored in our database for station/object YN1ZSC-13. If no packets are shown the sender has not sent any weather packets the latest 10 day(s).
| Time | Temp. | Humidity | Pressure | Rain* | Wind** | Luminosity | Snow |
|---|---|---|---|---|---|---|---|
| 1777976067 | 23.33° C | 75% | 1010 hPa | 0 mm | - | - | - |
| 1777975466 | 23.89° C | 75% | 1010 hPa | 0 mm | - | - | - |
| 1777974865 | 23.89° C | 75% | 1010 hPa | 0 mm | - | - | - |
| 1777974265 | 24.44° C | 75% | 1010 hPa | 0 mm | - | - | - |
| 1777973665 | 25° C | 75% | 1010 hPa | 0 mm | - | - | - |
| 1777973064 | 25.56° C | 75% | 1010 hPa | 0 mm | - | - | - |
| 1777972463 | 23.33° C | 72% | 1010 hPa | 0 mm | - | - | - |
| 1777971863 | 22.78° C | 76% | 1010 hPa | 0 mm | - | - | - |
| 1777971262 | 23.33° C | 71% | 1010 hPa | 0 mm | - | - | - |
| 1777970662 | 23.89° C | 71% | 1010 hPa | 0 mm | - | - | - |
| 1777970061 | 24.44° C | 71% | 1010 hPa | 0 mm | - | - | - |
| 1777969460 | 25° C | 71% | 1011 hPa | 0 mm | - | - | - |
| 1777968860 | 25.56° C | 71% | 1011 hPa | 0 mm | - | - | - |
| 1777968260 | 26.11° C | 71% | 1011 hPa | 0 mm | - | - | - |
| 1777967659 | 23.89° C | 71% | 1010 hPa | 0 mm | - | - | - |
| 1777967058 | 24.44° C | 71% | 1010 hPa | 0 mm | - | - | - |
| 1777966457 | 25° C | 71% | 1010 hPa | 0 mm | - | - | - |
| 1777965857 | 24.44° C | 71% | 1011 hPa | 0 mm | - | - | - |
| 1777965257 | 24.44° C | 71% | 1011 hPa | 0 mm | - | - | - |
| 1777964656 | 25° C | 71% | 1011 hPa | 0 mm | - | - | - |
| 1777964055 | 25.56° C | 71% | 1011 hPa | 0 mm | - | - | - |
| 1777963455 | 26.11° C | 71% | 1011 hPa | 0 mm | - | - | - |
| 1777962854 | 24.44° C | 72% | 1011 hPa | 0 mm | - | - | - |
| 1777962254 | 25° C | 71% | 1012 hPa | 0 mm | - | - | - |
| 1777961653 | 25.56° C | 71% | 1012 hPa | 0 mm | - | - | - |
* Rain latest hour (hover to see other rain measurements)
** Current wind speed in m/s (hover to see current wind gust speed)